RH
34 35 37 36 36 31 25 21 20 19 16 15 14 13 14 14 14 14 13 14 14 13 13 16 18 20 21 23 25 24 25 25 25 23 24 26 28 30 29 28 28 28 30
30 31 32 29 27 26 22 20 19 16 16 15 14 15 15 15 14 14 15 15 16 16 14 16 19 21 23 24 25 27 28 28 28 26 26 28 34 32 32 31 30 30 30
25 24 24 25 23 22 20 19 17 17 15 15 16 16 15 15 15 15 15 16 18 19 17 15 19 22 24 26 28 28 29 29 29 31 31 33 32 30 33 32 31 29 33
21 21 22 23 23 21 19 17 16 15 16 17 16 16 15 15 16 16 16 18 20 21 21 15 19 22 24 27 28 28 28 29 30 32 35 34 33 32 31 30 29 30 35
22 22 21 22 21 18 16 16 16 18 18 16 16 16 16 17 16 18 19 20 21 23 23 20 16 20 23 23 24 27 29 28 29 31 32 33 35 35 36 35 32 32 34
21 21 21 20 19 17 18 18 18 18 17 17 16 17 16 17 17 19 21 22 23 23 25 24 19 17 21 22 22 24 28 28 29 28 28 31 36 37 37 35 33 33 31
20 19 20 19 18 18 18 18 17 17 17 17 17 17 17 18 18 20 22 23 23 23 25 26 25 20 17 23 24 25 26 27 29 27 25 26 30 34 36 34 33 31 29
19 20 20 19 19 19 18 17 17 18 18 18 18 19 19 19 19 20 21 21 23 24 25 27 28 25 21 20 24 25 28 28 26 23 26 25 23 29 32 33 32 29 27
20 20 20 19 19 18 18 18 18 18 17 17 18 18 18 18 19 19 19 20 21 21 24 27 29 28 27 23 21 27 27 28 25 24 25 24 22 20 25 27 30 29 29
20 20 19 18 18 18 18 18 17 16 16 16 17 18 19 19 20 21 21 18 17 17 20 23 25 28 31 30 25 23 28 28 25 24 25 26 23 21 19 21 23 24 26
20 19 19 20 20 20 19 18 17 17 17 18 19 20 20 20 21 21 22 23 23 19 16 16 22 27 30 34 34 30 25 27 28 24 25 26 26 23 21 20 19 22 22
21 22 22 22 22 20 19 18 19 20 21 21 21 21 23 25 25 25 25 24 22 21 21 18 17 21 28 33 36 39 36 27 24 27 25 24 27 27 24 21 20 19 19
24 24 23 23 22 21 21 22 22 22 21 21 21 22 22 24 25 24 23 24 23 24 23 24 22 19 22 28 33 38 42 41 32 25 25 24 25 26 27 27 25 23 22
25 25 26 26 25 24 24 22 22 21 21 22 22 22 23 24 24 23 22 20 21 23 25 27 27 27 23 23 28 33 38 43 47 39 30 25 24 24 25 27 27 27 28
28 28 28 26 24 22 22 22 22 21 22 23 25 26 26 27 25 22 20 18 19 22 24 29 33 33 34 30 28 32 34 36 41 47 45 39 34 31 28 25 24 26 27
29 28 26 25 24 24 24 24 24 25 26 26 26 26 25 23 20 19 19 21 22 21 22 24 26 29 35 39 43 40 38 35 35 37 40 42 40 37 36 34 31 29 28
29 29 28 27 27 28 29 29 28 26 26 24 23 22 21 20 19 19 20 21 21 22 23 23 24 23 26 31 36 42 49 45 40 37 34 35 35 37 36 35 33 33 34
29 29 28 28 27 26 26 25 23 23 22 22 25 26 28 28 27 27 28 28 27 26 27 28 29 30 27 29 30 31 34 38 42 49 45 36 33 33 34 34 34 33 34
27 26 27 27 28 30 31 30 30 32 36 42 49 52 50 46 44 43 43 43 43 43 43 42 42 40 38 37 35 34 33 32 35 36 39 44 50 50 45 37 32 29 31
46 47 48 50 51 53 53 51 51 50 50 48 46 45 42 43 44 45 44 43 41 40 41 41 42 44 44 45 45 46 44 39 35 34 37 37 34 33 35 39 45 49 50
45 45 47 50 51 51 49 47 47 47 47 48 47 46 46 47 48 49 45 42 38 36 37 40 41 42 43 44 45 46 48 50 51 52 46 41 40 40 39 40 39 38 37
48 50 51 51 51 50 50 50 50 51 51 52 53 54 54 51 47 44 42 38 34 32 31 30 30 33 40 46 49 50 49 48 48 48 51 54 56 56 53 50 48 45 43
52 53 54 54 55 57 56 56 55 57 57 58 58 55 52 49 46 44 39 35 31 30 30 30 29 29 29 29 34 42 46 49 52 54 54 52 52 55 57 59 60 62 61
60 61 63 63 63 64 64 64 64 63 62 60 58 55 52 50 46 41 36 34 33 31 31 30 29 28 28 28 27 28 30 33 37 40 41 45 52 53 56 58 61 60 59
65 66 67 70 71 73 74 71 67 63 62 60 57 53 49 44 39 36 34 33 34 34 33 32 31 29 27 26 26 27 27 27 28 30 30 29 29 32 43 53 59 63 64
70 71 74 75 74 74 74 70 64 60 58 56 52 47 43 40 37 34 31 34 32 32 31 29 28 26 25 24 23 24 25 25 26 27 27 34 34 34 35 37 43 57 65